Miscellaneous Local Product
Issued by NWS Hastings, NE

Home | Current Version | Previous Version | Text Only | Print | Product List | Glossary Off
Versions: 1 2 3 4 5 6 7 8 9 10 11 12 13 14 15 16 17 18 19 20 21 22 23 24 25 26 27 28 29 30 31 32 33 34 35 36 37 38 39 40 41 42 43 44 45 46 47 48 49 50

000
AXUS43 KGID 030402
MISGRI

GID CWA HOURLY WEATHER ROUNDUP
NATIONAL WEATHER SERVICE HASTINGS NE
1000 PM CST MON MAR 02 2015

NOTE: "FAIR" INDICATES FEW OR NO CLOUDS BELOW 12,000 FEET WITH NO
SIGNIFICANT WEATHER AND/OR OBSTRUCTIONS TO VISIBILITY.

...SOUTH CENTRAL NEBRASKA...

CITY           SKY/WX    TMP DP  RH WIND       PRES   REMARKS
GRAND ISLAND   FAIR      29  17  61 S13       29.87F WCI  19
HASTINGS       FAIR      29  18  63 S15       29.85F WCI  18
KEARNEY        CLOUDY    28  16  59 S17       29.82F WCI  16
ORD            CLOUDY    30  15  53 S15G26    29.80F WCI  19
YORK           CLOUDY    32  19  59 S14       29.91F WCI  22
AURORA         FAIR      30  18  61 S14G22    29.88F WCI  20
LEXINGTON      CLOUDY    31  21  66 S15G23    29.77F WCI  20
HOLDREGE       CLOUDY    29  18  63 SE16G22   29.80F WCI  18
HEBRON         FAIR      31  21  65 S10       29.93F WCI  22

...NEBRASKA PANHANDLE...

CITY           SKY/WX    TMP DP  RH WIND       PRES   REMARKS
CHADRON        CLOUDY    33  24  69 W5        29.65R WCI  29
ALLIANCE       CLOUDY    29  24  82 S12       29.62F WCI  19
SCOTTSBLUFF    FAIR      29  24  82 E7        29.66R WCI  22
SIDNEY         CLOUDY    29  26  89 SE10      29.59F FOG     WCI  20

...WESTERN AND NORTH CENTRAL NEBRASKA...

CITY           SKY/WX    TMP DP  RH WIND       PRES   REMARKS
VALENTINE      FAIR      31  21  66 S9        29.72F WCI  23
AINSWORTH      CLOUDY    30  19  64 S14G20    29.73F WCI  20
ONEILL         FAIR      32  17  53 S13       29.82F WCI  22
BROKEN BOW     CLOUDY    30  17  58 S18G26    29.77F WCI  18
IMPERIAL         N/A     31  27  85 SE15G26   29.63F FOG     WCI  20
NORTH PLATTE   CLOUDY    30  22  72 SE16G22   29.72F WCI  19
MCCOOK         CLOUDY    31  23  72 SE13      29.72F WCI  21

...EASTERN NEBRASKA...

CITY           SKY/WX    TMP DP  RH WIND       PRES   REMARKS
NORFOLK        FAIR      32  18  56 S13       29.89F WCI  22
SO SIOUX CITY  MOCLDY    33  21  61 SE12G21   29.96F WCI  24
TEKAMAH        FAIR      32  21  64 SE16      29.98F WCI  21
COLUMBUS       FAIR      32  16  51 S13       29.93F WCI  22
ALBION         FAIR      31  16  52 S16       29.86F WCI  20
OMAHA EPPLEY   CLOUDY    33  19  56 SE21      29.99F WCI  21
OFFUTT AFB     CLOUDY    32  19  58 SE14      29.98F WCI  22
MILLARD        CLOUDY    33  19  56 SE17      29.98F WCI  22
LINCOLN        CLOUDY    33  19  56 S16G23    29.96F WCI  23
NEBRASKA CITY  CLOUDY    32  16  52 S13       29.99F WCI  22
BEATRICE       CLOUDY    32  22  66 S12G22    29.95F WCI  23
FALLS CITY     CLOUDY    34  19  54 SE14      30.01F WCI  25

...NORTHERN KANSAS...

CITY           SKY/WX    TMP DP  RH WIND       PRES   REMARKS
GOODLAND       CLOUDY    32  30  92 S25G33    29.61F WCI  19
HILL CITY      FAIR      30  22  72 S12       29.79F WCI  20
PHILLIPSBURG   CLEAR     32  23  69 E10       29.82F WCI  24
SMITH CENTER   CLEAR     28  19  69 SE16      29.86F WCI  17
BELOIT         CLEAR     30  23  74 SE10      29.91F WCI  21
HAYS           FAIR      28  18  64 SE16      29.83F WCI  17
RUSSELL        FAIR      30  23  75 S18       29.85F WCI  18
CONCORDIA      FAIR      31  25  78 S12       29.92F WCI  22
SALINA         FAIR      33  25  72 S20G25    29.95F WCI  21
TOPEKA         CLOUDY    35  24  64 S15G23    30.06S WCI  25



USA.gov is the U.S. government's official web portal to all federal, state and local government web resources and services.